| time (UTC) | temp C | wind direction | speed KPH | gust KPH | rain 1hr cm | rain 24hr cm | rain mn cm | humidity % | barometer mb |
| 20260510140032 | 25 | 239 | 9.7 | 19.3 | 0.00 | 0.00 | 0.00 | 45 | 1010.4 |
| 20260510135103 | 25 | 329 | 4.8 | 17.7 | 0.00 | 0.00 | 0.00 | 48 | 1010.4 |
| 20260510134036 | 24 | 217 | 6.4 | 12.9 | 0.00 | 0.00 | 0.00 | 51 | 1010.6 |
| 20260510133051 | 24 | 234 | 4.8 | 8.0 | 0.00 | 0.00 | 0.00 | 50 | 1010.8 |
| 20260510132120 | 25 | 279 | 6.4 | 9.7 | 0.00 | 0.00 | 0.00 | 40 | 1010.9 |
| 20260510131103 | 25 | 211 | 8.0 | 16.1 | 0.00 | 0.00 | 0.00 | 36 | 1011.0 |
| 20260510130109 | 25 | 273 | 6.4 | 11.3 | 0.00 | 0.00 | 0.00 | 37 | 1011.1 |
| 20260510125124 | 26 | 250 | 6.4 | 12.9 | 0.00 | 0.00 | 0.00 | 36 | 1011.1 |
| 20260510124053 | 27 | 0.0 | 1.6 | 0.00 | 0.00 | 0.00 | 33 | 1011.2 | |
| 20260510123022 | 26 | 0.0 | 0.0 | 0.00 | 0.00 | 0.00 | 36 | 1011.2 | |
| 20260510122054 | 26 | 0.0 | 0.0 | 0.00 | 0.00 | 0.00 | 36 | 1011.6 | |
| 20260510121122 | 26 | 0.0 | 0.0 | 0.00 | 0.03 | 0.00 | 37 | 1011.8 | |
| 20260510120042 | 26 | 0.0 | 0.0 | 0.00 | 0.10 | 0.00 | 39 | 1011.9 | |
| 20260510115047 | 25 | 0.0 | 0.0 | 0.00 | 0.13 | 0.00 | 40 | 1012.0 | |
| 20260510114103 | 25 | 0.0 | 0.0 | 0.00 | 0.13 | 0.00 | 41 | 1012.1 | |
| 20260510113123 | 25 | 0.0 | 0.0 | 0.00 | 0.15 | 0.00 | 40 | 1012.2 | |
| 20260510112031 | 25 | 0.0 | 0.0 | 0.00 | 0.18 | 0.00 | 40 | 1012.3 | |
| 20260510111116 | 26 | 0.0 | 0.0 | 0.00 | 0.18 | 0.00 | 41 | 1012.4 | |
| 20260510110123 | 26 | 0.0 | 0.0 | 0.00 | 0.23 | 0.00 | 40 | 1012.5 | |
| 20260510105042 | 26 | 225 | 1.6 | 6.4 | 0.00 | 0.28 | 0.00 | 42 | 1012.7 |
| 20260510104111 | 23 | 0.0 | 0.0 | 0.00 | 0.33 | 0.00 | 43 | 1012.7 | |
| 20260510103031 | 23 | 0.0 | 0.0 | 0.00 | 0.36 | 0.00 | 42 | 1012.9 | |
| 20260510102100 | 25 | 0.0 | 0.0 | 0.00 | 0.36 | 0.00 | 41 | 1013.0 | |
| 20260510101124 | 26 | 0.0 | 0.0 | 0.00 | 0.46 | 0.00 | 42 | 1013.3 | |
| 20260510100114 | 26 | 0.0 | 0.0 | 0.00 | 0.51 | 0.00 | 41 | 1013.3 | |
| 20260510095114 | 26 | 0.0 | 0.0 | 0.00 | 0.56 | 0.00 | 42 | 1013.4 | |
| 20260510094030 | 25 | 0.0 | 0.0 | 0.00 | 0.66 | 0.00 | 43 | 1013.4 | |
| 20260510093026 | 25 | 0.0 | 0.0 | 0.00 | 0.71 | 0.00 | 45 | 1013.6 | |
| 20260510092107 | 24 | 0.0 | 0.0 | 0.00 | 0.79 | 0.00 | 47 | 1013.4 | |
| 20260510091119 | 23 | 0.0 | 0.0 | 0.00 | 0.84 | 0.00 | 49 | 1013.4 | |
| 20260510090034 | 22 | 0.0 | 0.0 | 0.00 | 0.89 | 0.00 | 57 | 1013.5 | |
| 20260510085052 | 21 | 0.0 | 0.0 | 0.00 | 0.97 | 0.00 | 62 | 1013.6 | |
| 20260510084027 | 20 | 0.0 | 0.0 | 0.00 | 1.04 | 0.00 | 62 | 1013.6 | |
| 20260510083052 | 20 | 0.0 | 0.0 | 0.00 | 1.09 | 0.00 | 66 | 1013.7 | |
| 20260510082126 | 19 | 0.0 | 0.0 | 0.00 | 1.12 | 0.00 | 72 | 1013.7 | |
| 20260510081053 | 19 | 0.0 | 0.0 | 0.00 | 1.12 | 0.00 | 84 | 1013.5 | |
| 20260510080119 | 19 | 0.0 | 0.0 | 0.00 | 1.12 | 0.00 | 90 | 1013.7 | |
| 20260510075047 | 18 | 0.0 | 0.0 | 0.00 | 1.12 | 0.00 | 93 | 1013.7 | |
| 20260510074113 | 16 | 0.0 | 0.0 | 0.00 | 1.12 | 0.00 | 96 | 1013.7 | |
| 20260510073026 | 16 | 0.0 | 0.0 | 0.00 | 1.12 | 0.00 | 98 | 1013.7 | |
| 20260510072116 | 15 | 0.0 | 0.0 | 0.00 | 1.12 | 0.00 | 99 | 1013.6 | |
| 20260510071026 | 15 | 0.0 | 0.0 | 0.00 | 1.12 | 0.00 | 99 | 1013.5 | |
| 20260510070100 | 14 | 0.0 | 0.0 | 0.00 | 1.12 | 0.00 | 99 | 1013.4 | |
| 20260510065052 | 14 | 0.0 | 0.0 | 0.00 | 1.12 | 0.00 | 99 | 1013.3 | |
| 20260510064057 | 13 | 0.0 | 0.0 | 0.00 | 1.12 | 0.00 | 99 | 1013.2 | |
| 20260510063118 | 13 | 0.0 | 0.0 | 0.00 | 1.12 | 0.00 | 99 | 1013.2 | |
| 20260510062033 | 12 | 0.0 | 0.0 | 0.00 | 1.12 | 0.00 | 99 | 1013.1 | |
| 20260510061056 | 12 | 0.0 | 0.0 | 0.00 | 1.12 | 0.00 | 99 | 1013.1 | |
| 20260510060105 | 11 | 0.0 | 0.0 | 0.00 | 1.12 | 0.00 | 99 | 1013.0 | |
| 20260510055051 | 11 | 0.0 | 0.0 | 0.00 | 1.12 | 0.00 | 99 | 1012.8 | |
| 20260510054023 | 11 | 0.0 | 0.0 | 0.00 | 1.12 | 0.00 | 99 | 1012.7 | |
| 20260510053156 | 11 | 0.0 | 0.0 | 0.00 | 1.12 | 0.00 | 99 | 1012.5 | |
| 20260510052050 | 11 | 0.0 | 0.0 | 0.00 | 1.12 | 0.00 | 99 | 1012.4 | |
| 20260510051119 | 11 | 0.0 | 0.0 | 0.00 | 1.12 | 0.00 | 99 | 1012.3 | |
| 20260510050043 | 11 | 0.0 | 0.0 | 0.00 | 1.12 | 0.00 | 99 | 1012.3 | |
| 20260510045142 | 11 | 0.0 | 0.0 | 0.00 | 1.12 | 0.00 | 99 | 1012.4 | |
| 20260510044022 | 11 | 0.0 | 0.0 | 0.00 | 1.12 | 0.00 | 99 | 1012.3 | |
| 20260510043101 | 11 | 0.0 | 0.0 | 0.00 | 1.12 | 0.00 | 99 | 1012.4 | |
| 20260510042127 | 11 | 0.0 | 0.0 | 0.00 | 1.12 | 0.00 | 99 | 1012.3 | |
| 20260510041046 | 11 | 0.0 | 0.0 | 0.00 | 1.12 | 0.00 | 99 | 1012.2 | |
| 20260510040115 | 11 | 0.0 | 0.0 | 0.00 | 1.12 | 0.00 | 99 | 1012.2 | |
| 20260510035039 | 11 | 0.0 | 0.0 | 0.00 | 1.12 | 0.00 | 99 | 1012.3 | |
| 20260510034110 | 11 | 0.0 | 0.0 | 0.00 | 1.12 | 0.00 | 99 | 1012.2 | |
| 20260510033102 | 11 | 0.0 | 0.0 | 0.00 | 1.12 | 0.00 | 99 | 1012.1 | |
| 20260510032049 | 12 | 0.0 | 0.0 | 0.00 | 1.12 | 0.00 | 99 | 1012.2 | |
| 20260510031124 | 12 | 0.0 | 0.0 | 0.00 | 1.12 | 0.00 | 99 | 1012.2 | |
| 20260510030054 | 12 | 0.0 | 0.0 | 0.00 | 1.12 | 0.00 | 99 | 1012.3 | |
| 20260510025121 | 11 | 0.0 | 0.0 | 0.00 | 1.12 | 0.00 | 99 | 1012.3 | |
| 20260510024050 | 12 | 0.0 | 0.0 | 0.00 | 1.12 | 0.00 | 99 | 1012.3 | |
| 20260510023115 | 12 | 0.0 | 0.0 | 0.00 | 1.12 | 0.00 | 99 | 1012.3 | |
| 20260510022042 | 12 | 0.0 | 0.0 | 0.00 | 1.12 | 0.00 | 99 | 1012.3 | |
| 20260510021104 | 12 | 0.0 | 0.0 | 0.00 | 1.12 | 0.00 | 99 | 1012.3 | |
| 20260510020029 | 12 | 0.0 | 0.0 | 0.00 | 1.12 | 0.00 | 99 | 1012.3 | |
| 20260510015055 | 12 | 0.0 | 0.0 | 0.00 | 1.12 | 0.00 | 99 | 1012.3 | |
| 20260510014027 | 12 | 0.0 | 0.0 | 0.00 | 1.12 | 0.00 | 99 | 1012.3 | |
| 20260510013103 | 12 | 0.0 | 0.0 | 0.00 | 1.12 | 0.00 | 97 | 1012.4 | |
| 20260510012059 | 12 | 0.0 | 0.0 | 0.00 | 1.12 | 0.00 | 97 | 1012.5 | |
| 20260510011025 | 12 | 0.0 | 0.0 | 0.00 | 1.12 | 0.00 | 96 | 1012.4 | |
| 20260510010057 | 12 | 0.0 | 0.0 | 0.00 | 1.12 | 0.00 | 96 | 1012.6 | |
| 20260510005028 | 13 | 0.0 | 0.0 | 0.00 | 1.12 | 0.00 | 96 | 1012.7 | |
| 20260510004105 | 13 | 0.0 | 0.0 | 0.00 | 1.12 | 0.00 | 96 | 1012.8 | |
| 20260510003036 | 13 | 0.0 | 0.0 | 0.00 | 1.12 | 0.00 | 96 | 1013.0 | |
| 20260510002050 | 13 | 0.0 | 0.0 | 0.00 | 1.12 | 0.00 | 95 | 1013.1 | |
| 20260510001121 | 13 | 0.0 | 0.0 | 0.00 | 1.12 | 0.00 | 95 | 1013.1 | |
| 20260510000042 | 13 | 0.0 | 0.0 | 0.00 | 1.12 | 0.00 | 95 | 1013.1 | |
| 20260509235130 | 13 | 0.0 | 0.0 | 0.00 | 1.12 | 0.00 | 95 | 1013.2 | |
| 20260509234054 | 13 | 0.0 | 0.0 | 0.00 | 1.12 | 0.00 | 95 | 1013.2 | |
| 20260509233100 | 14 | 0.0 | 0.0 | 0.00 | 1.12 | 0.00 | 94 | 1013.3 | |
| 20260509232031 | 14 | 0.0 | 0.0 | 0.00 | 1.12 | 0.00 | 94 | 1013.5 | |
| 20260509231107 | 14 | 0.0 | 0.0 | 0.00 | 1.12 | 0.00 | 94 | 1013.5 | |
| 20260509230028 | 14 | 0.0 | 0.0 | 0.00 | 1.12 | 0.00 | 94 | 1013.4 | |
| 20260509225059 | 14 | 0.0 | 0.0 | 0.00 | 1.12 | 0.00 | 93 | 1013.6 | |
| 20260509224032 | 14 | 0.0 | 0.0 | 0.00 | 1.12 | 0.00 | 93 | 1013.3 | |
| 20260509223103 | 15 | 0.0 | 0.0 | 0.00 | 1.12 | 0.00 | 93 | 1013.5 | |
| 20260509222138 | 15 | 0.0 | 0.0 | 0.00 | 1.12 | 0.00 | 93 | 1013.7 | |
| 20260509221117 | 15 | 0.0 | 0.0 | 0.00 | 1.12 | 0.00 | 92 | 1013.7 | |
| 20260509220027 | 15 | 0.0 | 0.0 | 0.00 | 1.12 | 0.00 | 92 | 1013.9 | |
| 20260509215057 | 14 | 0.0 | 0.0 | 0.00 | 1.12 | 1.12 | 91 | 1013.9 | |
| 20260509214108 | 14 | 0.0 | 0.0 | 0.00 | 1.12 | 1.12 | 91 | 1014.0 | |
| 20260509213125 | 15 | 0.0 | 0.0 | 0.00 | 1.12 | 1.12 | 90 | 1013.8 | |
| 20260509212128 | 15 | 0.0 | 0.0 | 0.00 | 1.12 | 1.12 | 89 | 1013.5 | |
| 20260509211030 | 15 | 0.0 | 0.0 | 0.00 | 1.12 | 1.12 | 89 | 1013.5 | |
| 20260509210103 | 15 | 0.0 | 0.0 | 0.00 | 1.12 | 1.12 | 88 | 1013.4 | |
| 20260509205032 | 15 | 0.0 | 0.0 | 0.00 | 1.12 | 1.12 | 87 | 1013.4 | |
| 20260509204105 | 15 | 0.0 | 0.0 | 0.00 | 1.12 | 1.12 | 87 | 1013.4 | |
| 20260509203044 | 15 | 0.0 | 0.0 | 0.00 | 1.12 | 1.12 | 86 | 1013.3 | |
| 20260509202059 | 15 | 0.0 | 0.0 | 0.00 | 1.12 | 1.12 | 86 | 1013.3 | |
| 20260509201038 | 16 | 0.0 | 0.0 | 0.00 | 1.12 | 1.12 | 85 | 1013.0 | |
| 20260509200110 | 16 | 0.0 | 0.0 | 0.00 | 1.12 | 1.12 | 85 | 1012.8 | |
| 20260509195044 | 16 | 0.0 | 0.0 | 0.00 | 1.12 | 1.12 | 84 | 1012.5 | |
| 20260509194129 | 16 | 0.0 | 0.0 | 0.00 | 1.12 | 1.12 | 83 | 1012.6 | |
| 20260509193030 | 16 | 0.0 | 0.0 | 0.00 | 1.12 | 1.12 | 82 | 1012.5 | |
| 20260509192059 | 16 | 0.0 | 0.0 | 0.00 | 1.12 | 1.12 | 82 | 1012.4 | |
| 20260509191124 | 16 | 0.0 | 0.0 | 0.00 | 1.12 | 1.12 | 81 | 1012.1 | |
| 20260509190054 | 16 | 0.0 | 0.0 | 0.00 | 1.12 | 1.12 | 80 | 1011.9 | |
| 20260509185113 | 17 | 0.0 | 0.0 | 0.00 | 1.12 | 1.12 | 80 | 1012.0 | |
| 20260509184051 | 17 | 0.0 | 0.0 | 0.00 | 1.12 | 1.12 | 78 | 1011.6 | |
| 20260509183131 | 17 | 0.0 | 0.0 | 0.00 | 1.12 | 1.12 | 74 | 1011.4 | |
| 20260509182044 | 17 | 0.0 | 0.0 | 0.00 | 1.12 | 1.12 | 72 | 1011.5 | |
| 20260509181111 | 18 | 0.0 | 0.0 | 0.00 | 1.12 | 1.12 | 70 | 1011.5 | |
| 20260509180042 | 18 | 0.0 | 0.0 | 0.00 | 1.12 | 1.12 | 66 | 1011.3 | |
| 20260509175110 | 20 | 0.0 | 0.0 | 0.00 | 1.12 | 1.12 | 64 | 1010.9 | |
| 20260509174040 | 21 | 0.0 | 0.0 | 0.00 | 1.12 | 1.12 | 64 | 1010.6 | |
| 20260509173117 | 21 | 0.0 | 0.0 | 0.00 | 1.12 | 1.12 | 65 | 1010.4 | |
| 20260509172050 | 21 | 0.0 | 0.0 | 0.00 | 1.12 | 1.12 | 65 | 1010.3 | |
| 20260509171101 | 21 | 0.0 | 0.0 | 0.00 | 1.12 | 1.12 | 64 | 1010.1 | |
| 20260509170048 | 21 | 0.0 | 0.0 | 0.00 | 1.12 | 1.12 | 61 | 1010.0 | |
| 20260509165105 | 22 | 0.0 | 0.0 | 0.00 | 1.12 | 1.12 | 57 | 1010.0 | |
| 20260509164121 | 22 | 0.0 | 0.0 | 0.00 | 1.12 | 1.12 | 60 | 1010.2 | |
| 20260509163054 | 21 | 0.0 | 0.0 | 0.00 | 1.12 | 1.12 | 62 | 1010.3 | |
| 20260509162034 | 22 | 0.0 | 0.0 | 0.00 | 1.12 | 1.12 | 57 | 1010.3 | |
| 20260509161051 | 22 | 0.0 | 1.6 | 0.00 | 1.12 | 1.12 | 60 | 1010.3 | |
| 20260509160126 | 22 | 0.0 | 0.0 | 0.00 | 1.12 | 1.12 | 58 | 1010.2 | |
| 20260509155059 | 22 | 0.0 | 0.0 | 0.00 | 1.12 | 1.12 | 60 | 1010.3 | |
| 20260509154036 | 23 | 0.0 | 0.0 | 0.00 | 1.12 | 1.12 | 56 | 1010.5 | |
| 20260509153112 | 23 | 0.0 | 0.0 | 0.00 | 1.12 | 1.12 | 54 | 1010.4 | |
| 20260509152041 | 23 | 0.0 | 0.0 | 0.00 | 1.12 | 1.12 | 54 | 1010.4 | |
| 20260509151109 | 24 | 0.0 | 0.0 | 0.00 | 1.12 | 1.12 | 57 | 1010.4 | |
| 20260509150047 | 23 | 0.0 | 0.0 | 0.00 | 1.12 | 1.12 | 57 | 1010.3 | |
| 20260509145119 | 23 | 0.0 | 0.0 | 0.00 | 1.12 | 1.12 | 61 | 1010.5 | |
| 20260509144050 | 22 | 0.0 | 0.0 | 0.00 | 1.12 | 1.12 | 68 | 1010.6 | |
| 20260509143046 | 21 | 0.0 | 0.0 | 0.00 | 1.12 | 1.12 | 71 | 1010.8 | |
| 20260509142103 | 21 | 0.0 | 0.0 | 0.00 | 1.12 | 1.12 | 75 | 1010.9 | |
| 20260509141057 | 20 | 0.0 | 0.0 | 0.00 | 1.12 | 1.12 | 86 | 1010.9 |